Total_Precipitation_Accumulation
2.52 2.61 2.51 2.49 2.33 2.30 2.31 2.21 2.09 2.09 1.99 1.80 1.55 1.53 1.61 1.55 1.56 1.72 1.77 1.85 1.94 2.24 2.72 2.99 2.95 2.76 2.71 2.75 2.76 2.66 2.47 2.29 2.18 1.99 1.78 1.59 1.47 1.39 1.27 1.22 1.20 1.15 1.10
2.78 2.87 2.82 2.75 2.67 2.59 2.65 2.47 2.26 2.43 2.28 2.17 1.95 1.87 1.83 1.89 1.87 1.94 2.11 2.13 1.97 2.00 2.35 2.78 3.02 3.09 3.11 3.05 2.92 2.70 2.53 2.42 2.41 2.30 2.10 1.90 1.73 1.60 1.50 1.43 1.34 1.26 1.21
2.86 2.96 3.11 3.02 2.94 2.90 2.92 2.84 2.71 2.77 2.53 2.40 2.23 2.11 2.09 2.18 2.19 2.14 2.27 2.40 2.18 2.15 2.17 2.32 2.58 2.85 3.08 3.21 3.19 3.03 2.80 2.63 2.54 2.49 2.42 2.27 2.08 1.95 1.83 1.70 1.60 1.54 1.49
3.01 3.29 3.36 3.28 3.30 3.19 3.26 3.38 3.29 3.09 2.93 2.75 2.56 2.25 2.17 2.31 2.36 2.36 2.39 2.48 2.61 2.43 2.33 2.23 2.30 2.48 2.78 3.08 3.26 3.38 3.26 3.03 2.81 2.65 2.57 2.50 2.40 2.24 2.08 1.87 1.77 1.77 1.73
3.54 3.70 3.77 3.76 3.73 3.74 3.72 3.56 3.73 3.54 3.43 3.24 2.83 2.56 2.30 2.24 2.31 2.25 2.35 2.33 2.47 2.50 2.51 2.39 2.31 2.37 2.61 3.00 3.21 3.47 3.56 3.43 3.26 3.01 2.80 2.64 2.61 2.53 2.37 2.19 2.03 1.89 1.82
4.15 4.28 4.21 4.23 4.24 4.27 4.10 4.06 4.10 3.87 3.64 3.58 3.14 2.86 2.61 2.34 2.32 2.31 2.30 2.40 2.36 2.20 2.29 2.39 2.52 2.34 2.52 2.71 2.88 3.16 3.49 3.70 3.64 3.40 3.27 3.10 2.91 2.72 2.45 2.24 2.07 1.96 1.86
5.06 5.08 4.88 4.83 4.73 4.60 4.39 4.30 4.14 3.93 3.68 3.66 3.54 3.10 2.52 2.17 2.11 2.03 2.07 2.28 2.30 2.18 2.21 2.27 2.35 2.29 2.18 2.25 2.37 2.66 3.10 3.59 3.89 3.80 3.59 3.40 3.11 2.86 2.63 2.41 2.24 2.13 1.98
5.90 5.93 5.87 5.66 5.48 5.19 4.70 4.33 4.16 3.93 3.58 3.68 3.70 3.62 2.94 2.46 2.01 1.65 1.75 1.82 1.91 2.07 2.04 1.99 2.09 2.24 2.16 2.13 1.94 2.12 2.43 2.87 3.46 3.79 3.74 3.47 3.27 3.08 2.93 2.77 2.62 2.47 2.28
6.02 6.16 6.11 5.90 5.59 5.05 4.49 4.30 4.23 4.07 3.84 3.77 3.66 3.80 3.28 2.75 2.33 1.86 1.62 1.54 1.65 1.75 1.74 1.76 1.81 1.92 1.92 2.00 1.93 1.94 2.09 2.27 2.79 3.32 3.43 3.22 3.04 2.90 2.84 2.79 2.72 2.62 2.52
5.80 5.73 5.56 5.14 4.76 4.41 4.12 3.98 4.00 3.87 3.85 3.68 3.60 3.31 3.07 2.79 2.53 2.13 1.73 1.52 1.55 1.57 1.58 1.55 1.60 1.79 1.87 1.90 1.92 1.87 1.84 1.95 2.26 2.67 2.96 2.99 2.89 2.82 2.79 2.76 2.73 2.74 2.76
4.98 4.60 4.28 4.06 3.98 3.78 3.57 3.44 3.42 3.32 3.16 3.07 3.08 3.05 2.99 2.75 2.42 2.19 1.91 1.69 1.67 1.54 1.53 1.62 1.68 1.75 1.84 1.90 1.94 1.92 1.85 1.74 1.83 2.00 2.25 2.47 2.61 2.70 2.76 2.83 2.87 2.86 2.87
4.21 3.72 3.46 3.25 3.13 2.96 2.76 2.64 2.61 2.62 2.70 2.74 2.79 2.79 2.75 2.71 2.55 2.47 2.26 2.00 1.87 1.78 1.70 1.67 1.73 1.82 1.96 2.06 2.05 2.23 1.93 1.74 1.70 1.72 1.79 1.95 2.14 2.31 2.46 2.64 2.83 2.91 2.97
3.80 3.33 2.90 2.68 2.45 2.25 2.14 2.12 2.09 2.09 2.19 2.31 2.42 2.47 2.46 2.40 2.37 2.44 2.50 2.26 2.02 1.88 1.77 1.73 1.75 1.85 1.89 2.04 2.24 2.39 2.05 1.89 1.75 1.63 1.58 1.65 1.79 1.92 2.03 2.14 2.36 2.55 2.72
3.18 2.87 2.44 2.08 1.86 1.73 1.63 1.70 1.73 1.75 1.81 1.90 1.98 2.15 2.16 2.10 2.20 2.30 2.39 2.47 2.35 2.04 1.79 1.75 1.83 1.87 1.88 1.88 2.12 2.23 1.93 1.94 1.72 1.61 1.56 1.56 1.60 1.67 1.75 1.85 2.04 2.22 2.31
2.25 2.10 1.90 1.69 1.57 1.52 1.52 1.55 1.54 1.52 1.60 1.69 1.75 1.86 1.96 1.96 2.02 2.11 2.24 2.36 2.43 2.27 2.03 1.87 1.87 1.84 1.85 1.90 2.06 1.69 1.63 1.85 1.73 1.62 1.54 1.45 1.41 1.45 1.50 1.55 1.60 1.72 1.82
1.55 1.53 1.48 1.48 1.42 1.35 1.40 1.46 1.41 1.39 1.50 1.52 1.51 1.59 1.68 1.75 1.86 1.95 2.08 2.17 2.24 2.22 2.11 1.89 1.81 1.78 1.77 1.69 1.85 1.52 1.53 1.71 1.59 1.50 1.42 1.36 1.31 1.32 1.34 1.40 1.45 1.47 1.49
1.27 1.27 1.28 1.29 1.28 1.27 1.28 1.29 1.26 1.27 1.33 1.46 1.55 1.59 1.63 1.67 1.75 1.76 1.79 1.84 1.97 2.09 2.18 2.08 1.89 1.82 1.81 1.74 1.64 1.45 1.35 1.33 1.35 1.40 1.35 1.32 1.25 1.20 1.21 1.23 1.20 1.19 1.19
1.12 1.16 1.17 1.17 1.22 1.28 1.31 1.25 1.16 1.14 1.23 1.34 1.43 1.50 1.49 1.46 1.52 1.62 1.68 1.67 1.72 1.83 1.95 2.01 1.88 1.73 1.69 1.67 1.62 1.53 1.30 1.17 1.17 1.20 1.12 1.08 1.09 1.06 1.01 1.03 1.05 1.02 0.99
1.11 1.08 1.04 1.08 1.16 1.22 1.23 1.20 1.14 1.12 1.13 1.20 1.24 1.25 1.27 1.30 1.28 1.32 1.38 1.44 1.46 1.49 1.63 1.69 1.66 1.60 1.55 1.49 1.52 1.49 1.36 1.39 1.17 1.11 1.01 0.93 0.91 0.89 0.85 0.83 0.87 0.94 0.91
1.07 1.09 1.07 1.03 1.03 0.99 0.93 0.91 0.91 0.95 0.95 0.95 0.97 0.99 1.06 1.16 1.18 1.21 1.18 1.23 1.26 1.37 1.46 1.52 1.49 1.48 1.50 1.40 1.40 1.45 1.41 1.35 1.22 1.01 1.00 0.87 0.79 0.72 0.71 0.73 0.71 0.74 0.79
0.90 0.91 0.92 0.87 0.80 0.69 0.61 0.61 0.66 0.70 0.74 0.75 0.77 0.75 0.77 0.91 1.01 0.99 0.92 1.03 1.16 1.31 1.37 1.40 1.35 1.29 1.27 1.34 1.32 1.27 1.27 1.29 1.22 1.08 1.11 0.96 0.87 0.81 0.81 0.79 0.74 0.70 0.72
0.93 0.84 0.79 0.77 0.70 0.54 0.53 0.50 0.58 0.68 0.75 0.74 0.76 0.76 0.69 0.73 0.77 0.75 0.74 0.87 1.06 1.10 1.18 1.29 1.30 1.27 1.27 1.29 1.26 1.24 1.31 1.37 1.37 1.16 1.14 1.06 0.96 0.96 0.91 0.85 0.79 0.70 0.67
1.02 0.98 0.87 0.81 0.77 0.69 0.56 0.48 0.52 0.66 0.76 0.77 0.76 0.74 0.64 0.60 0.67 0.69 0.70 0.74 0.82 0.83 0.93 1.13 1.27 1.23 1.24 1.32 1.36 1.31 1.39 1.44 1.39 1.29 1.32 1.27 1.08 0.99 0.79 0.71 0.74 0.65 0.63
1.01 0.96 0.90 0.82 0.74 0.58 0.43 0.38 0.41 0.54 0.70 0.75 0.73 0.72 0.73 0.69 0.65 0.66 0.65 0.69 0.78 0.83 0.84 0.90 1.12 1.14 1.10 1.21 1.31 1.37 1.46 1.46 1.41 1.37 1.41 1.42 1.13 1.03 0.84 0.84 0.77 0.63 0.59
0.90 0.85 0.76 0.71 0.69 0.56 0.37 0.31 0.35 0.52 0.69 0.69 0.65 0.59 0.62 0.65 0.65 0.63 0.67 0.80 0.87 0.92 0.77 0.78 0.88 0.97 1.00 1.07 1.13 1.23 1.44 1.59 1.53 1.34 1.32 1.40 1.20 1.09 0.97 0.93 0.84 0.72 0.63
0.80 0.72 0.63 0.66 0.67 0.62 0.47 0.39 0.41 0.52 0.64 0.63 0.63 0.60 0.55 0.55 0.56 0.57 0.67 0.81 0.90 0.90 0.82 0.82 0.98 1.08 1.07 1.15 1.16 1.25 1.48 1.56 1.49 1.45 1.28 1.32 1.29 1.27 1.23 0.98 0.88 0.81 0.76